Miscellaneous Local Product
Issued by NWS North Platte, NE

Home | Current Version | Previous Version | Graphics & Text | Print | Product List | Glossary On
Versions: 1 2 3 4 5 6 7 8 9 10 11 12 13 14 15 16 17 18 19 20 21 22 23 24 25 26 27 28 29 30 31 32 33 34 35 36 37 38 39 40 41 42 43 44 45 46 47 48 49 50
000
AXUS43 KLBF 190610
MISLBF


WESTERN AND NORTH CENTRAL NEBRASKA HOURLY WEATHER ROUNDUP
NATIONAL WEATHER SERVICE NORTH PLATTE NE
1200 AM CST FRI DEC 19 2014

***STATIONS NOT REPORTING VARIABLES SUCH AS SKY/WEATHER OR
PRESSURE ARE PROVIDED BY THE NEBRASKA DEPARTMENT OF
ROADS...RAWS...AND APRS NETWORKS...AND ARE NOT UNDER
NATIONAL WEATHER SERVICE QUALITY CONTROL***

...OBSERVATIONS IN AND NEAR THE EASTERN PANHANDLE OF NEBRASKA...

CITY           SKY/WX    TMP DP  RH WIND       PRES   REMARKS
PINE RIDGE     CLEAR     22  15  75 S6        30.06R WCI  14
CHADRON        CLEAR     19  12  74 SW8       30.07S WCI   9
ALLIANCE       PTCLDY     9   6  88 SW6       30.07R WCI  -1
SIDNEY         PTCLDY    20  15  81 W7        30.09S WCI  11
WHITECLAY        N/A     21  14  76 SE6         N/A  WCI  13
CRESCENT LAKE    N/A     21  18  87 CALM        N/A
LISCO            N/A     13   7  78 CALM        N/A
BIG SPRINGS      N/A     22  20  91 W7          N/A  WCI  14
$$

...OBSERVATIONS IN NORTH CENTRAL NEBRASKA...

CITY           SKY/WX    TMP DP  RH WIND       PRES   REMARKS
VALENTINE      CLEAR     15  11  83 SW9       30.08S WCI   3
THEDFORD       PTCLDY    17  15  93 CALM      30.10S
AINSWORTH      CLEAR     16  15  93 CALM      30.09S
O`NEILL        CLOUDY    30  28  95 SW6       30.14S FOG     WCI  24
BROKEN BOW     CLOUDY    27  26  96 SW10      30.13R FOG     WCI  17
BROWNLEE         N/A     19  17  91 CALM        N/A
SPRINGVIEW       N/A     15  13  91 CALM        N/A
BREWSTER         N/A     25  25 100 SW6         N/A  WCI  18
ROSE             N/A     29  29 100 MISG        N/A
SARGENT          N/A     27  26  95 W5          N/A  WCI  22
COMSTOCK         N/A     33  31  93 W7          N/A  WCI  27
CHAMBERS         N/A     28  26  91 CALM        N/A
$$

...OBSERVATIONS IN SOUTHWEST NEBRASKA AND FAR NORTHEAST COLORADO...

CITY           SKY/WX    TMP DP  RH WIND       PRES   REMARKS
WRAY           FAIR      20  19  93 W6        30.12R WCI  13
IMPERIAL       MOCLDY    19  15  84 NW3       30.11S FOG
OGALLALA       PTCLDY    15  14  94 W5        30.11S WCI   8
NORTH PLATTE   FOG       18  15  88 CALM      30.12F VSB 1/2
MCCOOK         FOG       28  27  96 S5        30.15R VSB 1/4 WCI  23
LEXINGTON      CLOUDY    30  28  92 W7        30.15S FOG     WCI  23
PAXTON           N/A     19  17  93 CALM        N/A
BRADY            N/A     24  22  92 CALM        N/A
GOTHENBURG       N/A     28  26  91 CALM        N/A
CALLAWAY         N/A     24  23  96 CALM        N/A
$$

...NORTH PLATTE AREA...

CITY           SKY/WX    TMP DP  RH WIND       PRES   REMARKS
AIRPORT        FOG       18  15  88 CALM      30.12F VSB 1/2
$$

...SOME WEATHER OBSERVATIONS FROM AROUND THE REGION...

CITY           SKY/WX    TMP DP  RH WIND       PRES   REMARKS
DENVER         MOCLDY    28  25  88 SW10      30.08R WCI  19
LARAMIE        PTCLDY    10   6  84 W7        30.07R WCI  -1
CHEYENNE       CLEAR     26  13  57 W9        30.07S WCI  17
SCOTTSBLUFF    PTCLDY     9   6  88 N6        30.08S WCI  -1
RAPID CITY     CLEAR     26  18  71 W6        30.01S WCI  19
PIERRE         FOG       15  13  91 SE3       30.06S VSB 1
WINNER         FAIR      25  20  81 VRB3      30.08R
SIOUX FALLS    CLOUDY    27  24  89 S8        30.18R WCI  19
OMAHA          CLOUDY    31  27  85 S8        30.27R WCI  23
GRAND ISLAND   CLOUDY    29  24  82 SW6       30.20S WCI  23
KANSAS CITY    FOG       31  30  96 NE3       30.26S VSB<1/4
WICHITA        CLOUDY    31  28  89 CALM      30.25R FOG
HAYS           CLOUDY    32  25  74 S7        30.20S WCI  26
LIBERAL        CLOUDY    36  30  80 S3        30.19R
GOODLAND       CLEAR     23  21  92 W7        30.12R WCI  15
$$



USA.gov is the U.S. government's official web portal to all federal, state and local government web resources and services.